| time (UTC) | temp C | wind direction | speed KPH | gust KPH | rain 1hr cm | rain 24hr cm | rain mn cm | humidity % | barometer mb |
| 20260510225726 | 18 | 42 | 0.0 | 8.0 | 0.13 | 0.15 | 0.15 | 83 | 1012.4 |
| 20260510225241 | 18 | 42 | 1.6 | 8.0 | 0.13 | 0.15 | 0.15 | 82 | 1012.2 |
| 20260510224733 | 18 | 360 | 3.2 | 4.8 | 0.13 | 0.15 | 0.15 | 81 | 1012.2 |
| 20260510224221 | 18 | 295 | 1.6 | 3.2 | 0.13 | 0.15 | 0.15 | 80 | 1012.3 |
| 20260510223736 | 19 | 243 | 0.0 | 3.2 | 0.10 | 0.13 | 0.13 | 80 | 1012.3 |
| 20260510223224 | 20 | 321 | 0.0 | 6.4 | 0.10 | 0.13 | 0.13 | 77 | 1012.2 |
| 20260510222738 | 20 | 265 | 0.0 | 9.7 | 0.10 | 0.38 | 0.13 | 75 | 1012.2 |
| 20260510222227 | 21 | 317 | 4.8 | 9.7 | 0.08 | 0.36 | 0.10 | 72 | 1012.3 |
| 20260510221740 | 21 | 255 | 3.2 | 9.7 | 0.00 | 0.28 | 0.03 | 69 | 1012.7 |
| 20260510221256 | 21 | 251 | 6.4 | 9.7 | 0.00 | 0.28 | 0.03 | 66 | 1012.5 |
| 20260510220720 | 22 | 297 | 1.6 | 9.7 | 0.00 | 0.28 | 0.03 | 63 | 1012.0 |
| 20260510220259 | 22 | 12 | 3.2 | 9.7 | 0.00 | 0.28 | 0.03 | 63 | 1011.9 |
| 20260510215729 | 22 | 326 | 3.2 | 9.7 | 0.00 | 0.28 | 0.03 | 63 | 1011.8 |
| 20260510215306 | 22 | 289 | 0.0 | 6.4 | 0.00 | 0.28 | 0.03 | 62 | 1011.8 |
| 20260510214800 | 22 | 295 | 3.2 | 11.3 | 0.00 | 0.28 | 0.03 | 62 | 1011.7 |
| 20260510214229 | 23 | 284 | 1.6 | 11.3 | 0.00 | 0.28 | 0.03 | 61 | 1011.9 |
| 20260510213720 | 23 | 308 | 3.2 | 11.3 | 0.00 | 0.28 | 0.03 | 60 | 1011.8 |
| 20260510213237 | 23 | 284 | 0.0 | 11.3 | 0.00 | 0.28 | 0.03 | 60 | 1011.6 |
| 20260510212725 | 23 | 294 | 3.2 | 11.3 | 0.00 | 0.28 | 0.03 | 57 | 1011.6 |
| 20260510212238 | 23 | 284 | 4.8 | 14.5 | 0.00 | 0.28 | 0.03 | 56 | 1011.6 |
| 20260510211746 | 23 | 258 | 9.7 | 14.5 | 0.00 | 0.28 | 0.03 | 54 | 1011.4 |
| 20260510211258 | 23 | 308 | 4.8 | 14.5 | 0.00 | 0.28 | 0.03 | 54 | 1011.3 |
| 20260510210724 | 23 | 284 | 11.3 | 17.7 | 0.00 | 0.28 | 0.03 | 54 | 1011.2 |
| 20260510210218 | 23 | 300 | 3.2 | 17.7 | 0.00 | 0.28 | 0.03 | 55 | 1011.0 |
| 20260510205736 | 24 | 303 | 3.2 | 14.5 | 0.00 | 0.28 | 0.03 | 55 | 1010.9 |
| 20260510205223 | 24 | 321 | 9.7 | 14.5 | 0.00 | 0.28 | 0.03 | 57 | 1010.8 |
| 20260510204800 | 24 | 303 | 4.8 | 11.3 | 0.00 | 0.28 | 0.03 | 58 | 1010.7 |
| 20260510204231 | 24 | 323 | 4.8 | 11.3 | 0.00 | 0.28 | 0.03 | 58 | 1010.6 |
| 20260510203740 | 25 | 289 | 1.6 | 11.3 | 0.00 | 0.28 | 0.03 | 58 | 1010.6 |
| 20260510203232 | 25 | 284 | 1.6 | 12.9 | 0.00 | 0.28 | 0.03 | 56 | 1010.6 |
| 20260510202721 | 25 | 272 | 6.4 | 16.1 | 0.00 | 0.28 | 0.03 | 56 | 1010.7 |
| 20260510202238 | 25 | 262 | 6.4 | 17.7 | 0.00 | 0.28 | 0.03 | 57 | 1010.7 |
| 20260510201729 | 25 | 275 | 4.8 | 17.7 | 0.00 | 0.28 | 0.03 | 56 | 1010.7 |
| 20260510201221 | 25 | 281 | 9.7 | 14.5 | 0.00 | 0.28 | 0.03 | 55 | 1010.7 |
| 20260510200735 | 25 | 336 | 3.2 | 16.1 | 0.00 | 0.28 | 0.03 | 56 | 1010.7 |
| 20260510200244 | 26 | 292 | 8.0 | 16.1 | 0.00 | 0.28 | 0.03 | 56 | 1010.8 |
| 20260510195735 | 26 | 290 | 3.2 | 12.9 | 0.00 | 0.28 | 0.03 | 55 | 1010.7 |
| 20260510195243 | 26 | 236 | 6.4 | 12.9 | 0.00 | 0.28 | 0.03 | 52 | 1010.8 |
| 20260510194736 | 26 | 294 | 9.7 | 11.3 | 0.00 | 0.28 | 0.03 | 55 | 1010.9 |
| 20260510194224 | 25 | 204 | 3.2 | 11.3 | 0.00 | 0.28 | 0.03 | 54 | 1010.8 |
| 20260510193740 | 25 | 264 | 1.6 | 14.5 | 0.00 | 0.28 | 0.03 | 58 | 1010.9 |
| 20260510193231 | 25 | 282 | 9.7 | 14.5 | 0.00 | 0.28 | 0.03 | 56 | 1011.0 |
| 20260510192723 | 25 | 300 | 4.8 | 9.7 | 0.00 | 0.28 | 0.03 | 55 | 1010.9 |
| 20260510192238 | 25 | 290 | 3.2 | 12.9 | 0.00 | 0.28 | 0.03 | 57 | 1010.9 |
| 20260510191727 | 25 | 290 | 4.8 | 12.9 | 0.00 | 0.28 | 0.03 | 54 | 1011.2 |
| 20260510191242 | 25 | 283 | 3.2 | 14.5 | 0.00 | 0.28 | 0.03 | 54 | 1011.2 |
| 20260510190729 | 26 | 288 | 9.7 | 17.7 | 0.00 | 0.28 | 0.03 | 51 | 1011.2 |
| 20260510190244 | 26 | 300 | 9.7 | 17.7 | 0.00 | 0.28 | 0.03 | 52 | 1011.1 |
| 20260510185735 | 26 | 289 | 8.0 | 16.1 | 0.00 | 0.28 | 0.03 | 55 | 1011.1 |
| 20260510185244 | 25 | 326 | 6.4 | 17.7 | 0.00 | 0.28 | 0.03 | 55 | 1011.1 |
| 20260510184740 | 25 | 205 | 6.4 | 17.7 | 0.00 | 0.28 | 0.03 | 53 | 1011.2 |
| 20260510184235 | 25 | 297 | 8.0 | 12.9 | 0.00 | 0.28 | 0.03 | 55 | 1011.2 |
| 20260510183724 | 25 | 296 | 3.2 | 17.7 | 0.00 | 0.28 | 0.03 | 56 | 1011.2 |
| 20260510183254 | 25 | 302 | 8.0 | 17.7 | 0.00 | 0.28 | 0.03 | 55 | 1011.3 |
| 20260510182743 | 25 | 279 | 3.2 | 12.9 | 0.00 | 0.28 | 0.03 | 57 | 1011.3 |
| 20260510182253 | 25 | 242 | 4.8 | 17.7 | 0.00 | 0.28 | 0.03 | 55 | 1011.3 |
| 20260510181720 | 25 | 292 | 4.8 | 17.7 | 0.00 | 0.28 | 0.03 | 56 | 1011.3 |
| 20260510181234 | 25 | 289 | 4.8 | 16.1 | 0.00 | 0.28 | 0.03 | 57 | 1011.2 |
| 20260510180726 | 25 | 297 | 8.0 | 16.1 | 0.00 | 0.28 | 0.03 | 56 | 1011.3 |
| 20260510180259 | 25 | 286 | 4.8 | 12.9 | 0.00 | 0.28 | 0.03 | 57 | 1011.2 |
| 20260510175743 | 25 | 188 | 6.4 | 12.9 | 0.00 | 0.28 | 0.03 | 61 | 1011.2 |
| 20260510175239 | 25 | 204 | 4.8 | 12.9 | 0.00 | 0.28 | 0.03 | 62 | 1011.3 |
| 20260510174730 | 24 | 201 | 1.6 | 12.9 | 0.00 | 0.28 | 0.03 | 60 | 1011.3 |
| 20260510174244 | 24 | 182 | 3.2 | 12.9 | 0.00 | 0.28 | 0.03 | 65 | 1011.2 |
| 20260510173734 | 24 | 205 | 3.2 | 11.3 | 0.00 | 0.28 | 0.03 | 59 | 1011.3 |
| 20260510173221 | 24 | 273 | 4.8 | 14.5 | 0.00 | 0.28 | 0.03 | 61 | 1011.3 |
| 20260510172735 | 24 | 317 | 8.0 | 14.5 | 0.00 | 0.28 | 0.03 | 59 | 1011.4 |
| 20260510172243 | 23 | 270 | 6.4 | 17.7 | 0.00 | 0.28 | 0.03 | 62 | 1011.4 |
| 20260510171736 | 23 | 308 | 4.8 | 17.7 | 0.00 | 0.28 | 0.03 | 60 | 1011.4 |
| 20260510171225 | 23 | 230 | 9.7 | 16.1 | 0.00 | 0.28 | 0.03 | 60 | 1011.4 |
| 20260510170739 | 23 | 239 | 6.4 | 16.1 | 0.00 | 0.28 | 0.03 | 61 | 1011.4 |
| 20260510170233 | 23 | 274 | 8.0 | 17.7 | 0.00 | 0.28 | 0.03 | 63 | 1011.4 |
| 20260510165738 | 22 | 222 | 3.2 | 17.7 | 0.00 | 0.28 | 0.03 | 65 | 1011.4 |
| 20260510165229 | 22 | 270 | 3.2 | 12.9 | 0.00 | 0.28 | 0.03 | 61 | 1011.5 |
| 20260510164739 | 22 | 265 | 6.4 | 12.9 | 0.00 | 0.28 | 0.03 | 63 | 1011.5 |
| 20260510164245 | 22 | 5 | 3.2 | 12.9 | 0.00 | 0.28 | 0.03 | 67 | 1011.6 |
| 20260510163741 | 22 | 213 | 3.2 | 12.9 | 0.00 | 0.28 | 0.03 | 63 | 1011.6 |
| 20260510163233 | 22 | 215 | 6.4 | 9.7 | 0.00 | 0.28 | 0.03 | 65 | 1011.6 |
| 20260510162725 | 22 | 179 | 1.6 | 8.0 | 0.00 | 0.28 | 0.03 | 66 | 1011.6 |
| 20260510162218 | 21 | 306 | 1.6 | 8.0 | 0.00 | 0.28 | 0.03 | 68 | 1011.6 |
| 20260510161737 | 21 | 285 | 3.2 | 8.0 | 0.00 | 0.28 | 0.03 | 69 | 1011.6 |
| 20260510161225 | 21 | 36 | 1.6 | 8.0 | 0.00 | 0.28 | 0.03 | 70 | 1011.6 |
| 20260510160739 | 21 | 345 | 4.8 | 8.0 | 0.00 | 0.28 | 0.03 | 73 | 1011.6 |
| 20260510160245 | 21 | 308 | 1.6 | 9.7 | 0.00 | 0.28 | 0.03 | 72 | 1011.7 |
| 20260510155720 | 21 | 335 | 3.2 | 11.3 | 0.00 | 0.28 | 0.03 | 71 | 1011.9 |
| 20260510155236 | 20 | 297 | 1.6 | 12.9 | 0.00 | 0.28 | 0.03 | 72 | 1011.9 |
| 20260510154744 | 20 | 194 | 9.7 | 12.9 | 0.00 | 0.28 | 0.03 | 73 | 1011.9 |
| 20260510154233 | 20 | 248 | 4.8 | 8.0 | 0.00 | 0.28 | 0.03 | 73 | 1012.0 |
| 20260510153742 | 19 | 217 | 0.0 | 8.0 | 0.00 | 0.28 | 0.03 | 76 | 1012.1 |
| 20260510153233 | 19 | 67 | 1.6 | 8.0 | 0.00 | 0.28 | 0.03 | 79 | 1012.0 |
| 20260510152722 | 18 | 250 | 1.6 | 3.2 | 0.00 | 0.28 | 0.03 | 79 | 1012.1 |
| 20260510152238 | 18 | 81 | 0.0 | 3.2 | 0.00 | 0.28 | 0.03 | 83 | 1012.1 |
| 20260510151724 | 18 | 163 | 1.6 | 4.8 | 0.00 | 0.28 | 0.03 | 83 | 1012.2 |
| 20260510151241 | 17 | 51 | 0.0 | 6.4 | 0.00 | 0.28 | 0.03 | 86 | 1012.2 |
| 20260510150728 | 17 | 286 | 3.2 | 6.4 | 0.00 | 0.28 | 0.03 | 83 | 1012.1 |
| 20260510150222 | 17 | 286 | 0.0 | 3.2 | 0.00 | 0.28 | 0.03 | 86 | 1012.0 |
| 20260510145753 | 16 | 67 | 0.0 | 6.4 | 0.00 | 0.28 | 0.03 | 89 | 1012.0 |
| 20260510145220 | 16 | 34 | 1.6 | 8.0 | 0.00 | 0.28 | 0.03 | 88 | 1012.0 |
| 20260510144755 | 15 | 292 | 3.2 | 8.0 | 0.00 | 0.28 | 0.03 | 86 | 1012.0 |
| 20260510144245 | 15 | 336 | 0.0 | 6.4 | 0.00 | 0.28 | 0.03 | 89 | 1012.0 |
| 20260510143719 | 15 | 34 | 3.2 | 6.4 | 0.00 | 0.28 | 0.03 | 91 | 1012.2 |
| 20260510143236 | 15 | 22 | 1.6 | 8.0 | 0.00 | 0.28 | 0.03 | 91 | 1012.4 |
| 20260510142724 | 15 | 194 | 1.6 | 8.0 | 0.00 | 0.28 | 0.03 | 92 | 1012.2 |
| 20260510142256 | 14 | 173 | 3.2 | 6.4 | 0.00 | 0.28 | 0.03 | 92 | 1012.2 |
| 20260510141722 | 14 | 175 | 4.8 | 6.4 | 0.00 | 0.28 | 0.03 | 93 | 1012.2 |
| 20260510141240 | 14 | 288 | 0.0 | 6.4 | 0.00 | 0.28 | 0.03 | 94 | 1012.2 |
| 20260510140800 | 13 | 287 | 1.6 | 4.8 | 0.00 | 0.28 | 0.03 | 94 | 1012.3 |
| 20260510140256 | 13 | 287 | 3.2 | 6.4 | 0.00 | 0.28 | 0.03 | 94 | 1012.3 |
| 20260510135723 | 13 | 287 | 4.8 | 6.4 | 0.00 | 0.28 | 0.03 | 94 | 1012.2 |
| 20260510135238 | 13 | 287 | 0.0 | 6.4 | 0.00 | 0.28 | 0.03 | 94 | 1012.2 |
| 20260510134724 | 13 | 239 | 0.0 | 3.2 | 0.00 | 0.28 | 0.03 | 94 | 1012.0 |
| 20260510134221 | 13 | 239 | 0.0 | 6.4 | 0.00 | 0.28 | 0.03 | 95 | 1012.0 |
| 20260510133735 | 13 | 239 | 1.6 | 6.4 | 0.00 | 0.28 | 0.03 | 94 | 1012.1 |
| 20260510133223 | 12 | 239 | 1.6 | 6.4 | 0.00 | 0.28 | 0.03 | 94 | 1012.1 |
| 20260510132754 | 12 | 239 | 3.2 | 6.4 | 0.00 | 0.28 | 0.03 | 94 | 1012.2 |
| 20260510132222 | 12 | 238 | 3.2 | 6.4 | 0.00 | 0.28 | 0.03 | 94 | 1012.2 |
| 20260510131737 | 12 | 247 | 0.0 | 6.4 | 0.00 | 0.28 | 0.03 | 95 | 1012.2 |
| 20260510131227 | 12 | 205 | 0.0 | 6.4 | 0.00 | 0.28 | 0.03 | 95 | 1012.1 |
| 20260510130740 | 12 | 303 | 1.6 | 6.4 | 0.00 | 0.28 | 0.03 | 95 | 1012.2 |
| 20260510130233 | 12 | 32 | 0.0 | 6.4 | 0.00 | 0.28 | 0.03 | 95 | 1012.1 |
| 20260510125721 | 12 | 32 | 1.6 | 6.4 | 0.00 | 0.28 | 0.03 | 95 | 1011.9 |
| 20260510125237 | 12 | 32 | 0.0 | 0.0 | 0.00 | 0.28 | 0.03 | 94 | 1011.8 |
| 20260510124755 | 12 | 32 | 0.0 | 0.0 | 0.00 | 0.28 | 0.03 | 95 | 1011.9 |
| 20260510124223 | 12 | 32 | 0.0 | 0.0 | 0.00 | 0.28 | 0.03 | 95 | 1011.8 |
| 20260510123739 | 12 | 32 | 0.0 | 0.0 | 0.00 | 0.28 | 0.03 | 94 | 1011.6 |
| 20260510123227 | 12 | 32 | 0.0 | 0.0 | 0.00 | 0.28 | 0.03 | 94 | 1011.5 |
| 20260510122742 | 12 | 32 | 0.0 | 0.0 | 0.00 | 0.28 | 0.03 | 94 | 1011.7 |
| 20260510122229 | 11 | 32 | 0.0 | 0.0 | 0.00 | 0.28 | 0.03 | 95 | 1011.7 |
| 20260510121744 | 11 | 32 | 0.0 | 0.0 | 0.00 | 0.28 | 0.03 | 95 | 1011.7 |
| 20260510121234 | 11 | 32 | 0.0 | 0.0 | 0.00 | 0.28 | 0.03 | 95 | 1011.7 |
| 20260510120743 | 11 | 32 | 0.0 | 0.0 | 0.00 | 0.28 | 0.03 | 94 | 1011.7 |
| 20260510120235 | 11 | 32 | 0.0 | 0.0 | 0.00 | 0.28 | 0.03 | 94 | 1011.6 |
| 20260510115723 | 11 | 32 | 0.0 | 0.0 | 0.00 | 0.28 | 0.03 | 94 | 1011.4 |
| 20260510115242 | 11 | 32 | 0.0 | 3.2 | 0.00 | 0.28 | 0.03 | 94 | 1011.4 |
| 20260510114732 | 11 | 32 | 1.6 | 3.2 | 0.00 | 0.28 | 0.03 | 94 | 1011.5 |
| 20260510114222 | 11 | 32 | 0.0 | 6.4 | 0.00 | 0.28 | 0.03 | 95 | 1011.2 |
| 20260510113741 | 11 | 32 | 0.0 | 8.0 | 0.00 | 0.28 | 0.03 | 94 | 1011.2 |
| 20260510113231 | 11 | 32 | 6.4 | 8.0 | 0.00 | 0.28 | 0.03 | 95 | 1011.3 |
| 20260510112724 | 11 | 32 | 0.0 | 3.2 | 0.00 | 0.28 | 0.03 | 95 | 1011.2 |
| 20260510112242 | 11 | 32 | 0.0 | 3.2 | 0.00 | 0.28 | 0.03 | 95 | 1011.1 |
| 20260510111734 | 11 | 32 | 0.0 | 6.4 | 0.00 | 0.28 | 0.03 | 94 | 1011.1 |
| 20260510111244 | 11 | 32 | 0.0 | 6.4 | 0.00 | 0.28 | 0.03 | 94 | 1011.1 |
| 20260510110733 | 11 | 32 | 4.8 | 6.4 | 0.00 | 0.28 | 0.03 | 94 | 1011.0 |
| 20260510110239 | 11 | 46 | 3.2 | 6.4 | 0.00 | 0.28 | 0.03 | 95 | 1011.0 |
| 20260510105727 | 11 | 46 | 0.0 | 3.2 | 0.00 | 0.28 | 0.03 | 95 | 1011.0 |
| 20260510105306 | 11 | 46 | 0.0 | 6.4 | 0.00 | 0.28 | 0.03 | 95 | 1010.9 |
| 20260510104732 | 11 | 46 | 0.0 | 8.0 | 0.00 | 0.28 | 0.03 | 95 | 1010.9 |
| 20260510104220 | 10 | 61 | 1.6 | 11.3 | 0.00 | 0.28 | 0.03 | 95 | 1010.7 |
| 20260510103804 | 10 | 61 | 6.4 | 11.3 | 0.00 | 0.28 | 0.03 | 95 | 1010.4 |
| 20260510103235 | 10 | 47 | 3.2 | 8.0 | 0.00 | 0.28 | 0.03 | 94 | 1010.5 |
| 20260510102742 | 10 | 49 | 1.6 | 3.2 | 0.00 | 0.28 | 0.03 | 94 | 1010.5 |
| 20260510102305 | 10 | 49 | 0.0 | 0.0 | 0.00 | 0.28 | 0.03 | 94 | 1010.6 |
| 20260510101730 | 10 | 49 | 0.0 | 0.0 | 0.00 | 0.28 | 0.03 | 94 | 1010.6 |
| 20260510101243 | 10 | 49 | 0.0 | 0.0 | 0.00 | 0.28 | 0.03 | 94 | 1010.7 |
| 20260510100733 | 10 | 49 | 0.0 | 0.0 | 0.00 | 0.28 | 0.03 | 94 | 1010.7 |
| 20260510100242 | 10 | 49 | 0.0 | 0.0 | 0.03 | 0.28 | 0.03 | 94 | 1010.7 |
| 20260510095733 | 10 | 49 | 0.0 | 0.0 | 0.03 | 0.28 | 0.03 | 94 | 1010.6 |
| 20260510095251 | 10 | 49 | 0.0 | 3.2 | 0.03 | 0.28 | 0.03 | 94 | 1010.6 |
| 20260510094743 | 10 | 49 | 0.0 | 6.4 | 0.03 | 0.28 | 0.03 | 94 | 1010.6 |
| 20260510094235 | 10 | 49 | 1.6 | 6.4 | 0.03 | 0.28 | 0.03 | 94 | 1010.6 |
| 20260510093722 | 10 | 81 | 3.2 | 6.4 | 0.03 | 0.28 | 0.03 | 94 | 1010.7 |
| 20260510093240 | 10 | 348 | 1.6 | 6.4 | 0.03 | 0.28 | 0.03 | 94 | 1010.6 |
| 20260510092744 | 10 | 311 | 1.6 | 8.0 | 0.03 | 0.28 | 0.03 | 94 | 1010.6 |
| 20260510092259 | 10 | 13 | 4.8 | 11.3 | 0.03 | 0.28 | 0.03 | 93 | 1010.5 |
| 20260510091727 | 10 | 325 | 3.2 | 8.0 | 0.03 | 0.28 | 0.03 | 93 | 1010.7 |
| 20260510091300 | 10 | 57 | 6.4 | 8.0 | 0.03 | 0.28 | 0.03 | 93 | 1010.2 |
| 20260510090748 | 10 | 349 | 3.2 | 8.0 | 0.03 | 0.28 | 0.03 | 93 | 1010.6 |
| 20260510090242 | 9 | 319 | 4.8 | 9.7 | 0.00 | 0.25 | 0.00 | 93 | 1010.7 |
| 20260510085734 | 9 | 10 | 3.2 | 9.7 | 0.00 | 0.25 | 0.00 | 93 | 1010.2 |
| 20260510085221 | 9 | 21 | 4.8 | 8.0 | 0.00 | 0.25 | 0.00 | 93 | 1010.1 |
| 20260510084738 | 9 | 80 | 3.2 | 6.4 | 0.00 | 0.25 | 0.00 | 93 | 1010.0 |
| 20260510084233 | 9 | 80 | 1.6 | 6.4 | 0.00 | 0.25 | 0.00 | 93 | 1009.9 |
| 20260510083722 | 9 | 80 | 0.0 | 0.0 | 0.00 | 0.25 | 0.00 | 93 | 1009.9 |
| 20260510083240 | 9 | 80 | 0.0 | 0.0 | 0.00 | 0.25 | 0.00 | 93 | 1009.9 |
| 20260510082728 | 9 | 80 | 0.0 | 0.0 | 0.00 | 0.25 | 0.00 | 93 | 1009.9 |
| 20260510082243 | 9 | 80 | 0.0 | 3.2 | 0.00 | 0.25 | 0.00 | 93 | 1009.9 |
| 20260510081733 | 9 | 80 | 0.0 | 3.2 | 0.00 | 0.25 | 0.00 | 92 | 1009.9 |
| 20260510081222 | 9 | 80 | 0.0 | 3.2 | 0.00 | 0.25 | 0.00 | 92 | 1009.9 |
| 20260510080740 | 9 | 80 | 1.6 | 3.2 | 0.00 | 0.25 | 0.00 | 92 | 1009.9 |
| 20260510080231 | 9 | 80 | 1.6 | 3.2 | 0.00 | 0.25 | 0.00 | 92 | 1010.0 |
| 20260510075740 | 9 | 80 | 0.0 | 3.2 | 0.00 | 0.25 | 0.00 | 92 | 1010.0 |
| 20260510075228 | 9 | 80 | 0.0 | 4.8 | 0.00 | 0.25 | 0.00 | 92 | 1009.9 |
| 20260510074743 | 9 | 80 | 0.0 | 4.8 | 0.00 | 0.25 | 0.00 | 92 | 1009.9 |
| 20260510074231 | 9 | 80 | 0.0 | 6.4 | 0.00 | 0.25 | 0.00 | 93 | 1009.8 |
| 20260510073801 | 9 | 80 | 1.6 | 6.4 | 0.00 | 0.25 | 0.00 | 93 | 1009.8 |
| 20260510073231 | 9 | 80 | 6.4 | 6.4 | 0.00 | 0.25 | 0.00 | 93 | 1009.8 |
| 20260510072720 | 9 | 80 | 0.0 | 0.0 | 0.00 | 0.25 | 0.00 | 93 | 1009.8 |
| 20260510072258 | 9 | 80 | 0.0 | 0.0 | 0.00 | 0.25 | 0.00 | 92 | 1009.8 |
| 20260510071726 | 9 | 80 | 0.0 | 0.0 | 0.00 | 0.25 | 0.00 | 92 | 1009.7 |
| 20260510071259 | 9 | 80 | 0.0 | 0.0 | 0.00 | 0.25 | 0.00 | 92 | 1009.7 |
| 20260510070728 | 9 | 80 | 0.0 | 0.0 | 0.00 | 0.25 | 0.00 | 92 | 1009.6 |
| 20260510070245 | 9 | 80 | 0.0 | 0.0 | 0.00 | 0.25 | 0.00 | 92 | 1009.5 |
| 20260510065735 | 9 | 80 | 0.0 | 0.0 | 0.00 | 0.25 | 0.00 | 92 | 1009.3 |
| 20260510065224 | 9 | 80 | 0.0 | 0.0 | 0.00 | 0.25 | 0.00 | 92 | 1009.2 |
| 20260510064742 | 9 | 80 | 0.0 | 0.0 | 0.00 | 0.25 | 0.00 | 92 | 1009.2 |
| 20260510064302 | 9 | 80 | 0.0 | 0.0 | 0.00 | 0.25 | 0.00 | 92 | 1009.1 |
| 20260510063757 | 9 | 80 | 0.0 | 0.0 | 0.00 | 0.25 | 0.00 | 92 | 1009.2 |
| 20260510063226 | 9 | 80 | 0.0 | 0.0 | 0.00 | 0.25 | 0.00 | 92 | 1009.2 |
| 20260510062740 | 9 | 80 | 0.0 | 0.0 | 0.00 | 0.25 | 0.00 | 92 | 1009.3 |
| 20260510062258 | 9 | 80 | 0.0 | 3.2 | 0.00 | 0.25 | 0.00 | 92 | 1009.3 |
| 20260510061727 | 9 | 80 | 0.0 | 6.4 | 0.00 | 0.25 | 0.00 | 92 | 1009.3 |
| 20260510061241 | 9 | 80 | 3.2 | 6.4 | 0.00 | 0.25 | 0.00 | 92 | 1009.3 |
| 20260510060801 | 9 | 80 | 0.0 | 0.0 | 0.00 | 0.25 | 0.00 | 91 | 1009.3 |
| 20260510060222 | 9 | 80 | 0.0 | 0.0 | 0.00 | 0.25 | 0.00 | 91 | 1009.4 |
| 20260510055738 | 9 | 80 | 0.0 | 0.0 | 0.00 | 0.25 | 0.00 | 91 | 1009.5 |
| 20260510055228 | 9 | 80 | 0.0 | 0.0 | 0.00 | 0.25 | 0.00 | 91 | 1009.6 |
| 20260510054743 | 9 | 80 | 0.0 | 0.0 | 0.00 | 0.25 | 0.00 | 91 | 1009.5 |
| 20260510054234 | 9 | 80 | 0.0 | 0.0 | 0.00 | 0.25 | 0.00 | 91 | 1009.6 |
| 20260510053723 | 9 | 80 | 0.0 | 0.0 | 0.00 | 0.25 | 0.00 | 91 | 1009.6 |
| 20260510053238 | 10 | 80 | 0.0 | 0.0 | 0.00 | 0.25 | 0.00 | 91 | 1009.7 |
| 20260510052745 | 9 | 80 | 0.0 | 0.0 | 0.00 | 0.25 | 0.00 | 91 | 1009.7 |
| 20260510052237 | 9 | 80 | 0.0 | 0.0 | 0.00 | 0.25 | 0.00 | 91 | 1009.7 |
| 20260510051730 | 9 | 80 | 0.0 | 0.0 | 0.00 | 0.25 | 0.00 | 91 | 1009.7 |
| 20260510051245 | 9 | 80 | 0.0 | 0.0 | 0.00 | 0.25 | 0.00 | 91 | 1009.7 |
| 20260510050735 | 9 | 80 | 0.0 | 0.0 | 0.00 | 0.25 | 0.00 | 91 | 1009.8 |
| 20260510050243 | 9 | 80 | 0.0 | 0.0 | 0.00 | 0.25 | 0.00 | 91 | 1009.7 |
| 20260510045740 | 9 | 80 | 0.0 | 0.0 | 0.00 | 0.25 | 0.00 | 91 | 1009.8 |
| 20260510045231 | 10 | 80 | 0.0 | 0.0 | 0.00 | 0.25 | 0.00 | 91 | 1009.9 |
| 20260510044723 | 10 | 80 | 0.0 | 0.0 | 0.00 | 0.25 | 0.00 | 91 | 1009.9 |
| 20260510044238 | 10 | 80 | 0.0 | 0.0 | 0.00 | 0.25 | 0.00 | 90 | 1009.9 |
| 20260510043730 | 10 | 80 | 0.0 | 0.0 | 0.00 | 0.25 | 0.00 | 90 | 1010.0 |
| 20260510043245 | 10 | 80 | 0.0 | 0.0 | 0.00 | 0.25 | 0.00 | 91 | 1009.9 |
| 20260510042735 | 10 | 80 | 0.0 | 0.0 | 0.00 | 0.25 | 0.00 | 91 | 1010.0 |
| 20260510042224 | 10 | 80 | 0.0 | 0.0 | 0.00 | 0.25 | 0.00 | 91 | 1010.0 |
| 20260510041738 | 10 | 80 | 0.0 | 0.0 | 0.00 | 0.25 | 0.00 | 91 | 1010.0 |
| 20260510041227 | 10 | 80 | 0.0 | 0.0 | 0.00 | 0.25 | 0.00 | 91 | 1010.0 |
| 20260510040740 | 10 | 80 | 0.0 | 0.0 | 0.00 | 0.25 | 0.25 | 91 | 1010.0 |
| 20260510040231 | 10 | 80 | 0.0 | 0.0 | 0.00 | 0.25 | 0.25 | 91 | 1009.9 |
| 20260510035742 | 10 | 80 | 0.0 | 0.0 | 0.00 | 0.25 | 0.25 | 91 | 1009.9 |
| 20260510035233 | 10 | 80 | 0.0 | 0.0 | 0.00 | 0.25 | 0.25 | 90 | 1009.9 |
| 20260510034741 | 10 | 80 | 0.0 | 0.0 | 0.00 | 0.25 | 0.25 | 90 | 1009.8 |
| 20260510034238 | 10 | 80 | 0.0 | 0.0 | 0.00 | 0.25 | 0.25 | 90 | 1009.9 |
| 20260510033732 | 10 | 80 | 0.0 | 0.0 | 0.00 | 0.25 | 0.25 | 90 | 1009.8 |
| 20260510033240 | 10 | 80 | 0.0 | 0.0 | 0.00 | 0.25 | 0.25 | 90 | 1009.7 |
| 20260510032727 | 10 | 80 | 0.0 | 0.0 | 0.00 | 0.25 | 0.25 | 90 | 1009.6 |
| 20260510032243 | 10 | 80 | 0.0 | 0.0 | 0.00 | 0.25 | 0.25 | 90 | 1009.6 |
| 20260510031732 | 10 | 80 | 0.0 | 0.0 | 0.00 | 0.25 | 0.25 | 90 | 1009.6 |
| 20260510031222 | 10 | 80 | 0.0 | 0.0 | 0.00 | 0.25 | 0.25 | 89 | 1009.7 |
| 20260510030805 | 10 | 80 | 0.0 | 0.0 | 0.00 | 0.25 | 0.25 | 89 | 1009.7 |
| 20260510030234 | 10 | 80 | 0.0 | 0.0 | 0.00 | 0.25 | 0.25 | 89 | 1009.6 |
| 20260510025724 | 10 | 80 | 0.0 | 0.0 | 0.00 | 0.25 | 0.25 | 89 | 1009.6 |
| 20260510025239 | 10 | 80 | 0.0 | 0.0 | 0.00 | 0.25 | 0.25 | 89 | 1009.6 |
| 20260510024748 | 10 | 80 | 0.0 | 0.0 | 0.00 | 0.25 | 0.25 | 89 | 1009.6 |
| 20260510024240 | 10 | 80 | 0.0 | 0.0 | 0.00 | 0.25 | 0.25 | 89 | 1009.6 |
| 20260510023733 | 10 | 80 | 0.0 | 0.0 | 0.00 | 0.25 | 0.25 | 89 | 1009.6 |
| 20260510023224 | 10 | 80 | 0.0 | 0.0 | 0.00 | 0.25 | 0.25 | 89 | 1009.6 |
| 20260510022739 | 11 | 80 | 0.0 | 0.0 | 0.00 | 0.25 | 0.25 | 89 | 1009.5 |
| 20260510022226 | 11 | 80 | 0.0 | 0.0 | 0.00 | 0.25 | 0.25 | 89 | 1009.5 |
| 20260510021722 | 11 | 80 | 0.0 | 0.0 | 0.00 | 0.25 | 0.25 | 89 | 1009.4 |
| 20260510021303 | 11 | 80 | 0.0 | 0.0 | 0.00 | 0.25 | 0.25 | 89 | 1009.3 |
| 20260510020735 | 11 | 80 | 0.0 | 0.0 | 0.00 | 0.25 | 0.25 | 88 | 1009.4 |
| 20260510020224 | 11 | 80 | 0.0 | 0.0 | 0.00 | 0.25 | 0.25 | 89 | 1009.3 |
| 20260510015739 | 11 | 80 | 0.0 | 0.0 | 0.00 | 0.25 | 0.25 | 89 | 1009.3 |
| 20260510015243 | 11 | 80 | 0.0 | 0.0 | 0.00 | 0.25 | 0.25 | 88 | 1009.3 |
| 20260510014800 | 11 | 80 | 0.0 | 0.0 | 0.00 | 0.25 | 0.25 | 88 | 1009.4 |
| 20260510014230 | 11 | 80 | 0.0 | 0.0 | 0.00 | 0.25 | 0.25 | 88 | 1009.5 |
| 20260510013721 | 11 | 80 | 0.0 | 0.0 | 0.00 | 0.25 | 0.25 | 88 | 1009.5 |
| 20260510013237 | 11 | 80 | 0.0 | 0.0 | 0.00 | 0.25 | 0.25 | 88 | 1009.6 |
| 20260510012744 | 12 | 80 | 0.0 | 0.0 | 0.00 | 0.25 | 0.25 | 88 | 1009.5 |
| 20260510012242 | 12 | 80 | 0.0 | 0.0 | 0.00 | 0.25 | 0.25 | 88 | 1009.5 |
| 20260510011733 | 12 | 80 | 0.0 | 0.0 | 0.00 | 0.25 | 0.25 | 87 | 1009.4 |
| 20260510011223 | 12 | 80 | 0.0 | 0.0 | 0.00 | 0.25 | 0.25 | 87 | 1009.2 |
| 20260510010739 | 12 | 80 | 0.0 | 0.0 | 0.00 | 0.25 | 0.25 | 87 | 1009.1 |
| 20260510010231 | 12 | 80 | 0.0 | 0.0 | 0.00 | 0.25 | 0.25 | 87 | 1009.0 |
| 20260510005744 | 12 | 80 | 0.0 | 0.0 | 0.00 | 0.25 | 0.25 | 87 | 1009.1 |
| 20260510005306 | 12 | 80 | 0.0 | 0.0 | 0.00 | 0.25 | 0.25 | 87 | 1009.1 |
| 20260510004759 | 12 | 80 | 0.0 | 0.0 | 0.00 | 0.25 | 0.25 | 87 | 1009.1 |
| 20260510004227 | 13 | 80 | 0.0 | 0.0 | 0.00 | 0.25 | 0.25 | 87 | 1009.0 |
| 20260510003721 | 13 | 80 | 0.0 | 1.6 | 0.00 | 0.25 | 0.25 | 87 | 1009.0 |
| 20260510003237 | 13 | 80 | 0.0 | 1.6 | 0.00 | 0.25 | 0.25 | 87 | 1008.9 |
| 20260510002726 | 13 | 80 | 0.0 | 0.0 | 0.00 | 0.25 | 0.25 | 87 | 1008.9 |
| 20260510002245 | 13 | 80 | 0.0 | 0.0 | 0.00 | 0.25 | 0.25 | 87 | 1008.9 |
| 20260510001736 | 13 | 80 | 0.0 | 0.0 | 0.00 | 0.25 | 0.25 | 86 | 1008.9 |
| 20260510001242 | 13 | 80 | 0.0 | 0.0 | 0.00 | 0.25 | 0.25 | 86 | 1008.9 |
| 20260510000732 | 13 | 80 | 0.0 | 0.0 | 0.00 | 0.25 | 0.25 | 86 | 1008.8 |
| 20260510000241 | 13 | 80 | 0.0 | 1.6 | 0.00 | 0.25 | 0.25 | 86 | 1008.9 |
| 20260509235731 | 14 | 80 | 0.0 | 1.6 | 0.00 | 0.25 | 0.25 | 86 | 1008.9 |
| 20260509235240 | 14 | 79 | 0.0 | 0.0 | 0.00 | 0.25 | 0.25 | 86 | 1009.0 |
| 20260509234732 | 14 | 80 | 0.0 | 0.0 | 0.00 | 0.25 | 0.25 | 86 | 1009.0 |
| 20260509234220 | 14 | 80 | 0.0 | 3.2 | 0.00 | 0.25 | 0.25 | 86 | 1008.9 |
| 20260509233755 | 14 | 80 | 0.0 | 3.2 | 0.00 | 0.25 | 0.25 | 86 | 1008.8 |
| 20260509233255 | 14 | 80 | 0.0 | 3.2 | 0.00 | 0.25 | 0.25 | 87 | 1008.8 |
| 20260509232722 | 14 | 80 | 0.0 | 6.4 | 0.00 | 0.25 | 0.25 | 87 | 1008.7 |
| 20260509232240 | 15 | 80 | 0.0 | 6.4 | 0.00 | 0.25 | 0.25 | 87 | 1008.7 |
| 20260509231734 | 14 | 79 | 0.0 | 6.4 | 0.00 | 0.25 | 0.25 | 88 | 1008.6 |
| 20260509231243 | 14 | 80 | 1.6 | 8.0 | 0.00 | 0.25 | 0.25 | 88 | 1008.5 |
| 20260509230805 | 14 | 80 | 3.2 | 9.7 | 0.00 | 0.25 | 0.25 | 88 | 1008.5 |
| 20260509230234 | 14 | 44 | 3.2 | 9.7 | 0.00 | 0.25 | 0.25 | 89 | 1008.6 |